Track FLOCK 4V 2 now! 10-day predictions FLOCK 4V 2 is classified as:
1 46321U 20061BB 22137.18787836 .00012942 00000-0 69882-3 0 9992 2 46321 97.4505 208.9969 0001508 292.5383 67.5689 15.14854127 93705